Time,TemperatureF,DewpointF,PressureIn,WindDirection,WindDirectionDegrees,WindSpeedMPH,WindSpeedGustMPH,Humidity,HourlyPrecipIn,Conditions,Clouds,dailyrainin,SoftwareType,DateUTC
2013-05-18 00:01:00,71.8,59.8,29.43,SE,126,2.3,0.0,66,0.00,CLR,,0.00,WeatherDisplay:10.37,2013-05-18 04:01:00,
2013-05-18 00:06:00,71.6,59.6,29.43,East,92,3.5,3.5,66,0.00,CLR,,0.00,WeatherDisplay:10.37,2013-05-18 04:06:00,
2013-05-18 00:11:00,71.5,60.0,29.43,East,92,0.0,0.0,67,0.00,CLR,,0.00,WeatherDisplay:10.37,2013-05-18 04:11:00,
2013-05-18 00:16:00,71.3,59.8,29.43,ESE,114,0.0,0.0,67,0.00,CLR,,0.00,WeatherDisplay:10.37,2013-05-18 04:16:00,
2013-05-18 00:21:00,71.1,59.6,29.43,ESE,114,0.0,0.0,67,0.00,CLR,,0.00,WeatherDisplay:10.37,2013-05-18 04:21:00,
2013-05-18 00:26:00,70.9,59.8,29.43,ESE,114,0.0,0.0,68,0.00,CLR,,0.00,WeatherDisplay:10.37,2013-05-18 04:26:00,
2013-05-18 00:31:00,70.8,59.7,29.43,ESE,114,0.0,0.0,68,0.00,CLR,,0.00,WeatherDisplay:10.37,2013-05-18 04:31:00,
2013-05-18 00:36:00,70.6,59.5,29.43,ESE,114,0.0,0.0,68,0.00,CLR,,0.00,WeatherDisplay:10.37,2013-05-18 04:36:00,
2013-05-18 00:41:00,70.4,59.7,29.43,ESE,114,0.0,0.0,69,0.00,CLR,,0.00,WeatherDisplay:10.37,2013-05-18 04:41:00,
2013-05-18 00:46:00,70.3,59.6,29.43,ESE,114,0.0,0.0,69,0.00,CLR,,0.00,WeatherDisplay:10.37,2013-05-18 04:46:00,
2013-05-18 00:51:00,70.3,60.1,29.43,ESE,114,0.0,0.0,70,0.00,CLR,,0.00,WeatherDisplay:10.37,2013-05-18 04:51:00,
2013-05-18 00:56:00,70.1,59.9,29.44,ESE,114,0.0,0.0,70,0.00,CLR,,0.00,WeatherDisplay:10.37,2013-05-18 04:56:00,
2013-05-18 01:01:00,69.9,60.1,29.44,ESE,114,0.0,0.0,71,0.00,CLR,,0.00,WeatherDisplay:10.37,2013-05-18 05:01:00,
2013-05-18 01:06:00,69.8,60.0,29.44,ESE,114,0.0,0.0,71,0.00,CLR,,0.00,WeatherDisplay:10.37,2013-05-18 05:06:00,
2013-05-18 01:11:00,69.6,60.2,29.43,ESE,116,0.0,0.0,72,0.00,CLR,,0.00,WeatherDisplay:10.37,2013-05-18 05:11:00,
2013-05-18 01:16:00,69.4,60.0,29.43,ESE,114,0.0,0.0,72,0.00,CLR,,0.00,WeatherDisplay:10.37,2013-05-18 05:16:00,
2013-05-18 01:21:00,69.3,60.3,29.43,ESE,114,0.0,0.0,73,0.00,CLR,,0.00,WeatherDisplay:10.37,2013-05-18 05:21:00,
2013-05-18 01:26:00,69.1,60.1,29.44,NE,35,3.5,3.5,73,0.00,CLR,,0.00,WeatherDisplay:10.37,2013-05-18 05:26:00,
2013-05-18 01:31:00,68.9,59.9,29.44,North,0,0.0,0.0,73,0.00,CLR,,0.00,WeatherDisplay:10.37,2013-05-18 05:31:00,
2013-05-18 01:36:00,68.6,59.6,29.44,NE,34,0.0,0.0,73,0.00,CLR,,0.00,WeatherDisplay:10.37,2013-05-18 05:36:00,
2013-05-18 01:41:00,68.4,59.4,29.44,North,0,4.6,4.6,73,0.00,CLR,,0.00,WeatherDisplay:10.37,2013-05-18 05:41:00,
2013-05-18 01:46:00,68.1,59.1,29.44,NE,34,0.0,0.0,73,0.00,CLR,,0.00,WeatherDisplay:10.37,2013-05-18 05:46:00,
2013-05-18 01:51:00,67.9,58.9,29.44,NNE,30,0.0,0.5,73,0.00,CLR,,0.00,WeatherDisplay:10.37,2013-05-18 05:51:00,
2013-05-18 01:56:00,67.8,58.4,29.44,NNE,30,0.0,0.0,72,0.00,CLR,,0.00,WeatherDisplay:10.37,2013-05-18 05:56:00,
2013-05-18 02:01:00,67.8,58.4,29.44,NNE,24,1.1,1.1,72,0.00,CLR,,0.00,WeatherDisplay:10.37,2013-05-18 06:01:00,
2013-05-18 02:06:00,67.6,58.6,29.44,NNE,24,0.0,0.0,73,0.00,CLR,,0.00,WeatherDisplay:10.37,2013-05-18 06:06:00,
2013-05-18 02:11:00,67.4,58.1,29.44,NNE,24,0.0,0.0,72,0.00,CLR,,0.00,WeatherDisplay:10.37,2013-05-18 06:11:00,
2013-05-18 02:17:00,67.3,58.3,29.44,NNE,24,0.0,0.0,73,0.00,CLR,,0.00,WeatherDisplay:10.37,2013-05-18 06:17:00,
2013-05-18 02:22:00,67.1,58.2,29.44,NNE,18,3.5,0.0,73,0.00,CLR,,0.00,WeatherDisplay:10.37,2013-05-18 06:22:00,
2013-05-18 02:27:00,66.9,58.0,29.43,NNE,18,0.0,0.0,73,0.00,CLR,,0.00,WeatherDisplay:10.37,2013-05-18 06:27:00,
2013-05-18 02:32:00,66.8,57.9,29.43,NNE,18,0.0,0.0,73,0.00,CLR,,0.00,WeatherDisplay:10.37,2013-05-18 06:32:00,
2013-05-18 02:37:00,66.6,57.7,29.43,NNE,18,0.0,0.0,73,0.00,CLR,,0.00,WeatherDisplay:10.37,2013-05-18 06:37:00,
2013-05-18 02:42:00,66.4,57.9,29.43,NNE,18,0.0,0.0,74,0.00,CLR,,0.00,WeatherDisplay:10.37,2013-05-18 06:42:00,
2013-05-18 02:47:00,66.4,58.2,29.43,NNE,18,0.0,0.0,75,0.00,CLR,,0.00,WeatherDisplay:10.37,2013-05-18 06:47:00,
2013-05-18 02:52:00,66.3,57.8,29.43,NNE,18,0.0,0.0,74,0.00,CLR,,0.00,WeatherDisplay:10.37,2013-05-18 06:52:00,
2013-05-18 02:57:00,66.1,57.9,29.43,NNE,18,0.0,0.0,75,0.00,CLR,,0.00,WeatherDisplay:10.37,2013-05-18 06:57:00,
2013-05-18 03:02:00,66.0,57.8,29.43,NNE,18,0.0,0.0,75,0.00,CLR,,0.00,WeatherDisplay:10.37,2013-05-18 07:02:00,
2013-05-18 03:07:00,65.8,57.7,29.43,NNE,18,0.0,0.0,75,0.00,CLR,,0.00,WeatherDisplay:10.37,2013-05-18 07:07:00,
2013-05-18 03:12:00,65.6,57.8,29.43,NNE,18,0.0,0.0,76,0.00,CLR,,0.00,WeatherDisplay:10.37,2013-05-18 07:12:00,
2013-05-18 03:17:00,65.5,57.7,29.43,NNE,18,0.0,0.0,76,0.00,CLR,,0.00,WeatherDisplay:10.37,2013-05-18 07:17:00,
2013-05-18 03:22:00,65.3,57.5,29.43,NNE,18,0.0,0.0,76,0.00,CLR,,0.00,WeatherDisplay:10.37,2013-05-18 07:22:00,
2013-05-18 03:27:00,65.2,57.8,29.43,NNE,18,0.0,0.0,77,0.00,CLR,,0.00,WeatherDisplay:10.37,2013-05-18 07:27:00,
2013-05-18 03:32:00,65.2,58.2,29.43,NNE,18,0.0,0.0,78,0.00,CLR,,0.00,WeatherDisplay:10.37,2013-05-18 07:32:00,
2013-05-18 03:37:00,64.8,57.8,29.43,NNE,18,0.0,0.0,78,0.00,CLR,,0.00,WeatherDisplay:10.37,2013-05-18 07:37:00,
2013-05-18 03:42:00,64.7,57.7,29.43,NNE,18,0.0,0.0,78,0.00,CLR,,0.00,WeatherDisplay:10.37,2013-05-18 07:42:00,
2013-05-18 03:47:00,64.7,57.7,29.43,NNE,18,0.0,0.0,78,0.00,CLR,,0.00,WeatherDisplay:10.37,2013-05-18 07:47:00,
2013-05-18 03:52:00,64.5,57.8,29.43,NNE,18,0.0,0.0,79,0.00,CLR,,0.00,WeatherDisplay:10.37,2013-05-18 07:52:00,
2013-05-18 03:57:00,64.3,57.6,29.43,NNE,18,0.0,0.0,79,0.00,CLR,,0.00,WeatherDisplay:10.37,2013-05-18 07:57:00,
2013-05-18 04:02:00,64.5,57.5,29.43,NNE,31,0.0,0.0,78,0.00,CLR,,0.00,WeatherDisplay:10.37,2013-05-18 08:02:00,
2013-05-18 04:07:00,64.7,57.7,29.43,NNE,31,0.0,0.0,78,0.00,CLR,,0.00,WeatherDisplay:10.37,2013-05-18 08:07:00,
2013-05-18 04:12:00,64.5,57.8,29.44,NNE,32,0.0,0.1,79,0.00,CLR,,0.00,WeatherDisplay:10.37,2013-05-18 08:12:00,
2013-05-18 04:17:00,64.5,57.8,29.44,NNE,32,0.0,0.0,79,0.00,CLR,,0.00,WeatherDisplay:10.37,2013-05-18 08:17:00,
2013-05-18 04:22:00,64.3,57.6,29.44,NNE,32,0.0,0.0,79,0.00,CLR,,0.00,WeatherDisplay:10.37,2013-05-18 08:22:00,
2013-05-18 04:27:00,64.2,57.5,29.44,NNE,32,0.0,0.0,79,0.00,CLR,,0.00,WeatherDisplay:10.37,2013-05-18 08:27:00,
2013-05-18 04:32:00,64.0,57.4,29.44,NNE,32,0.0,0.0,79,0.00,CLR,,0.00,WeatherDisplay:10.37,2013-05-18 08:32:00,
2013-05-18 04:37:00,64.0,57.4,29.44,NNE,32,0.0,0.0,79,0.00,CLR,,0.00,WeatherDisplay:10.37,2013-05-18 08:37:00,
2013-05-18 04:42:00,64.0,57.4,29.44,NNE,32,0.0,0.0,79,0.00,CLR,,0.00,WeatherDisplay:10.37,2013-05-18 08:42:00,
2013-05-18 04:47:00,63.9,57.3,29.44,NNE,32,0.0,0.0,79,0.00,CLR,,0.00,WeatherDisplay:10.37,2013-05-18 08:47:00,
2013-05-18 04:52:00,63.7,57.1,29.44,NNE,32,0.0,0.0,79,0.00,CLR,,0.00,WeatherDisplay:10.37,2013-05-18 08:52:00,
2013-05-18 04:57:00,63.5,57.2,29.45,NNE,32,0.0,0.0,80,0.00,CLR,,0.00,WeatherDisplay:10.37,2013-05-18 08:57:00,
2013-05-18 05:02:00,63.4,57.1,29.45,NNE,32,0.0,0.0,80,0.00,CLR,,0.00,WeatherDisplay:10.37,2013-05-18 09:02:00,
2013-05-18 05:07:00,63.4,57.1,29.45,NNE,32,0.0,0.0,80,0.00,CLR,,0.00,WeatherDisplay:10.37,2013-05-18 09:07:00,
2013-05-18 05:12:00,63.2,56.9,29.45,NNE,32,0.0,0.0,80,0.00,CLR,,0.00,WeatherDisplay:10.37,2013-05-18 09:12:00,
2013-05-18 05:17:00,63.2,57.3,29.45,NNE,32,0.0,0.0,81,0.00,CLR,,0.00,WeatherDisplay:10.37,2013-05-18 09:17:00,
2013-05-18 05:22:00,63.1,57.2,29.45,NNE,32,0.0,0.0,81,0.00,CLR,,0.00,WeatherDisplay:10.37,2013-05-18 09:22:00,
2013-05-18 05:27:00,63.1,57.2,29.45,NNE,32,0.0,0.0,81,0.00,CLR,,0.00,WeatherDisplay:10.37,2013-05-18 09:27:00,
2013-05-18 05:32:00,62.9,57.3,29.45,NNE,32,0.0,0.0,82,0.00,CLR,,0.00,WeatherDisplay:10.37,2013-05-18 09:32:00,
2013-05-18 05:37:00,62.9,57.3,29.45,NNE,32,0.0,0.0,82,0.00,CLR,,0.00,WeatherDisplay:10.37,2013-05-18 09:37:00,
2013-05-18 05:42:00,62.9,57.3,29.45,NNE,32,0.0,0.0,82,0.00,CLR,,0.00,WeatherDisplay:10.37,2013-05-18 09:42:00,
2013-05-18 05:47:00,62.7,57.1,29.45,NNE,32,0.0,0.0,82,0.00,CLR,,0.00,WeatherDisplay:10.37,2013-05-18 09:47:00,
2013-05-18 05:52:00,62.7,57.1,29.45,NNE,32,0.0,0.0,82,0.00,CLR,,0.00,WeatherDisplay:10.37,2013-05-18 09:52:00,
2013-05-18 05:57:00,62.6,57.4,29.46,NNE,32,0.0,0.0,83,0.00,CLR,,0.00,WeatherDisplay:10.37,2013-05-18 09:57:00,
2013-05-18 06:02:00,62.4,57.2,29.46,NNE,32,0.0,0.0,83,0.00,CLR,,0.00,WeatherDisplay:10.37,2013-05-18 10:02:00,
2013-05-18 06:07:00,62.3,57.1,29.46,NNE,32,0.0,0.0,83,0.00,CLR,,0.00,WeatherDisplay:10.37,2013-05-18 10:07:00,
2013-05-18 06:12:00,62.1,57.2,29.46,NNE,32,0.0,0.0,84,0.00,CLR,,0.00,WeatherDisplay:10.37,2013-05-18 10:12:00,
2013-05-18 06:17:00,62.1,57.2,29.46,NNE,32,0.0,0.0,84,0.00,CLR,,0.00,WeatherDisplay:10.37,2013-05-18 10:17:00,
2013-05-18 06:22:00,62.0,57.1,29.46,SE,130,0.0,0.0,84,0.00,CLR,,0.00,WeatherDisplay:10.37,2013-05-18 10:22:00,
2013-05-18 06:27:00,62.0,57.4,29.47,SE,130,0.0,0.0,85,0.00,CLR,,0.00,WeatherDisplay:10.37,2013-05-18 10:27:00,
2013-05-18 06:32:00,62.1,57.9,29.47,SE,130,0.0,0.0,86,0.00,CLR,,0.00,WeatherDisplay:10.37,2013-05-18 10:32:00,
2013-05-18 06:37:00,62.1,57.9,29.47,SE,130,0.0,0.0,86,0.00,CLR,,0.00,WeatherDisplay:10.37,2013-05-18 10:37:00,
2013-05-18 06:42:00,62.3,58.1,29.47,SE,126,1.1,0.0,86,0.00,CLR,,0.00,WeatherDisplay:10.37,2013-05-18 10:42:00,
2013-05-18 06:47:00,62.3,58.1,29.47,SE,124,1.1,1.1,86,0.00,CLR,,0.00,WeatherDisplay:10.37,2013-05-18 10:47:00,
2013-05-18 06:52:00,62.3,58.4,29.47,SE,124,1.1,0.0,87,0.00,CLR,,0.00,WeatherDisplay:10.37,2013-05-18 10:52:00,
2013-05-18 06:57:00,62.1,58.2,29.48,SE,124,0.0,0.0,87,0.00,CLR,,0.00,WeatherDisplay:10.37,2013-05-18 10:57:00,
2013-05-18 07:02:00,62.3,58.4,29.48,SE,124,0.0,0.2,87,0.00,CLR,,0.00,WeatherDisplay:10.37,2013-05-18 11:02:00,
2013-05-18 07:07:00,62.3,58.4,29.48,SE,124,0.0,0.0,87,0.00,CLR,,0.00,WeatherDisplay:10.37,2013-05-18 11:07:00,
2013-05-18 07:12:00,62.3,58.7,29.48,SE,124,0.0,0.0,88,0.00,CLR,,0.00,WeatherDisplay:10.37,2013-05-18 11:12:00,
2013-05-18 07:17:00,62.3,58.7,29.48,SE,130,2.0,2.0,88,0.00,CLR,,0.00,WeatherDisplay:10.37,2013-05-18 11:17:00,
2013-05-18 07:22:00,62.4,58.8,29.48,East,100,0.0,0.0,88,0.00,CLR,,0.00,WeatherDisplay:10.37,2013-05-18 11:22:00,
2013-05-18 07:27:00,62.4,58.8,29.48,East,95,1.1,1.1,88,0.00,CLR,,0.00,WeatherDisplay:10.37,2013-05-18 11:27:00,
2013-05-18 07:32:00,62.6,59.0,29.48,East,95,0.0,0.0,88,0.00,CLR,,0.00,WeatherDisplay:10.37,2013-05-18 11:32:00,
2013-05-18 07:37:00,62.7,59.1,29.48,ESE,110,0.0,0.2,88,0.00,CLR,,0.00,WeatherDisplay:10.37,2013-05-18 11:37:00,
2013-05-18 07:42:00,62.9,59.6,29.48,SE,141,0.0,0.4,89,0.00,CLR,,0.00,WeatherDisplay:10.37,2013-05-18 11:42:00,
2013-05-18 07:47:00,63.1,59.5,29.48,ESE,117,0.0,0.0,88,0.00,CLR,,0.00,WeatherDisplay:10.37,2013-05-18 11:47:00,
2013-05-18 07:52:00,63.2,59.6,29.48,ESE,114,2.3,2.3,88,0.00,CLR,,0.00,WeatherDisplay:10.37,2013-05-18 11:52:00,
2013-05-18 07:57:00,63.4,59.8,29.49,ESE,114,0.0,0.0,88,0.00,CLR,,0.00,WeatherDisplay:10.37,2013-05-18 11:57:00,
2013-05-18 08:02:00,63.5,59.9,29.49,ESE,116,3.5,3.5,88,0.00,CLR,,0.00,WeatherDisplay:10.37,2013-05-18 12:02:00,
2013-05-18 08:07:00,63.7,60.1,29.49,West,278,0.0,0.0,88,0.00,CLR,,0.00,WeatherDisplay:10.37,2013-05-18 12:07:00,
2013-05-18 08:12:00,64.0,60.4,29.49,ESE,109,0.0,0.0,88,0.00,CLR,,0.00,WeatherDisplay:10.37,2013-05-18 12:12:00,
2013-05-18 08:17:00,64.2,60.6,29.49,ESE,109,0.0,0.7,88,0.00,CLR,,0.00,WeatherDisplay:10.37,2013-05-18 12:17:00,
2013-05-18 08:22:00,64.5,60.9,29.49,ESE,109,0.0,0.0,88,0.00,CLR,,0.00,WeatherDisplay:10.37,2013-05-18 12:22:00,
2013-05-18 08:27:00,64.7,61.1,29.50,ESE,112,0.0,0.0,88,0.00,CLR,,0.00,WeatherDisplay:10.37,2013-05-18 12:27:00,
2013-05-18 08:32:00,64.8,61.2,29.50,ESE,112,0.0,0.6,88,0.00,CLR,,0.00,WeatherDisplay:10.37,2013-05-18 12:32:00,
2013-05-18 08:37:00,65.0,61.0,29.50,ESE,112,0.0,0.4,87,0.00,CLR,,0.00,WeatherDisplay:10.37,2013-05-18 12:37:00,
2013-05-18 08:42:00,65.3,61.3,29.50,ESE,113,0.0,0.0,87,0.00,CLR,,0.00,WeatherDisplay:10.37,2013-05-18 12:42:00,
2013-05-18 08:47:00,65.5,61.5,29.50,ESE,112,0.0,0.1,87,0.00,CLR,,0.00,WeatherDisplay:10.37,2013-05-18 12:47:00,
2013-05-18 08:52:00,65.8,61.8,29.50,ESE,121,2.3,2.6,87,0.00,CLR,,0.00,WeatherDisplay:10.37,2013-05-18 12:52:00,
2013-05-18 08:57:00,66.0,61.7,29.50,SW,226,1.0,1.0,86,0.00,CLR,,0.00,WeatherDisplay:10.37,2013-05-18 12:57:00,
2013-05-18 09:02:00,66.0,61.7,29.50,East,93,3.5,3.5,86,0.00,CLR,,0.00,WeatherDisplay:10.37,2013-05-18 13:02:00,
2013-05-18 09:07:00,66.3,62.0,29.50,ESE,117,1.1,0.0,86,0.00,CLR,,0.00,WeatherDisplay:10.37,2013-05-18 13:07:00,
2013-05-18 09:12:00,66.3,62.0,29.50,East,99,0.0,0.4,86,0.00,CLR,,0.00,WeatherDisplay:10.37,2013-05-18 13:12:00,
2013-05-18 09:17:00,66.6,62.3,29.50,East,100,3.5,3.5,86,0.00,CLR,,0.00,WeatherDisplay:10.37,2013-05-18 13:17:00,
2013-05-18 09:22:00,67.1,62.4,29.50,NE,56,3.5,3.5,85,0.00,CLR,,0.00,WeatherDisplay:10.37,2013-05-18 13:22:00,
2013-05-18 09:27:00,67.6,62.6,29.50,ESE,103,1.1,0.0,84,0.00,CLR,,0.00,WeatherDisplay:10.37,2013-05-18 13:27:00,
2013-05-18 09:32:00,67.8,62.4,29.50,NE,48,1.1,1.1,83,0.00,CLR,,0.00,WeatherDisplay:10.37,2013-05-18 13:32:00,
2013-05-18 09:37:00,68.1,62.7,29.50,NE,49,0.0,0.0,83,0.00,CLR,,0.00,WeatherDisplay:10.37,2013-05-18 13:37:00,
2013-05-18 09:42:00,68.6,62.9,29.50,NE,49,0.0,0.0,82,0.00,CLR,,0.00,WeatherDisplay:10.37,2013-05-18 13:42:00,
2013-05-18 09:47:00,68.8,63.1,29.50,ENE,68,2.3,2.3,82,0.00,CLR,,0.00,WeatherDisplay:10.37,2013-05-18 13:47:00,
2013-05-18 09:52:00,68.9,62.8,29.50,ENE,72,0.0,0.0,81,0.00,CLR,,0.00,WeatherDisplay:10.37,2013-05-18 13:52:00,
2013-05-18 09:57:00,69.3,63.2,29.50,ENE,72,0.0,0.0,81,0.00,CLR,,0.00,WeatherDisplay:10.37,2013-05-18 13:57:00,
2013-05-18 10:02:00,69.8,63.7,29.50,ENE,72,1.1,0.0,81,0.00,CLR,,0.00,WeatherDisplay:10.37,2013-05-18 14:02:00,
2013-05-18 10:07:00,70.1,63.3,29.50,ENE,73,0.0,0.0,79,0.00,CLR,,0.00,WeatherDisplay:10.37,2013-05-18 14:07:00,
2013-05-18 10:12:00,70.1,63.3,29.50,South,172,0.0,0.5,79,0.00,CLR,,0.00,WeatherDisplay:10.37,2013-05-18 14:12:00,
2013-05-18 10:17:00,70.4,63.6,29.50,South,172,1.1,0.0,79,0.00,CLR,,0.00,WeatherDisplay:10.37,2013-05-18 14:17:00,
2013-05-18 10:22:00,70.9,63.7,29.50,South,172,0.0,0.0,78,0.00,CLR,,0.00,WeatherDisplay:10.37,2013-05-18 14:22:00,
2013-05-18 10:27:00,71.5,63.9,29.50,South,172,0.0,0.1,77,0.00,CLR,,0.00,WeatherDisplay:10.37,2013-05-18 14:27:00,
2013-05-18 10:32:00,71.3,63.7,29.50,South,172,0.0,0.0,77,0.00,CLR,,0.00,WeatherDisplay:10.37,2013-05-18 14:32:00,
2013-05-18 10:37:00,71.5,63.9,29.50,ENE,65,3.5,3.5,77,0.00,CLR,,0.00,WeatherDisplay:10.37,2013-05-18 14:37:00,
2013-05-18 10:42:00,71.6,64.0,29.50,ENE,65,0.0,0.0,77,0.00,CLR,,0.00,WeatherDisplay:10.37,2013-05-18 14:42:00,
2013-05-18 10:47:00,72.0,64.0,29.50,East,95,1.1,1.1,76,0.00,CLR,,0.00,WeatherDisplay:10.37,2013-05-18 14:47:00,
2013-05-18 10:52:00,72.1,64.1,29.50,ESE,112,3.5,0.0,76,0.00,CLR,,0.00,WeatherDisplay:10.37,2013-05-18 14:52:00,
2013-05-18 10:57:00,72.3,64.3,29.50,ESE,107,3.5,3.5,76,0.00,CLR,,0.00,WeatherDisplay:10.37,2013-05-18 14:57:00,
2013-05-18 11:02:00,72.3,64.3,29.50,ESE,114,0.0,0.0,76,0.00,CLR,,0.00,WeatherDisplay:10.37,2013-05-18 15:02:00,
2013-05-18 11:07:00,72.8,64.0,29.50,ENE,73,0.0,0.0,74,0.00,CLR,,0.00,WeatherDisplay:10.37,2013-05-18 15:07:00,
2013-05-18 11:12:00,73.0,63.8,29.50,ENE,75,1.1,1.1,73,0.00,CLR,,0.00,WeatherDisplay:10.37,2013-05-18 15:12:00,
2013-05-18 11:17:00,73.0,64.2,29.50,ESE,120,0.0,0.0,74,0.00,CLR,,0.00,WeatherDisplay:10.37,2013-05-18 15:17:00,
2013-05-18 11:22:00,73.5,64.3,29.50,East,82,0.0,0.0,73,0.00,CLR,,0.00,WeatherDisplay:10.37,2013-05-18 15:22:00,
2013-05-18 11:27:00,73.9,64.7,29.50,SE,145,0.0,0.0,73,0.00,CLR,,0.00,WeatherDisplay:10.37,2013-05-18 15:27:00,
2013-05-18 11:32:00,73.9,64.3,29.50,East,97,1.1,1.1,72,0.00,CLR,,0.00,WeatherDisplay:10.37,2013-05-18 15:32:00,
2013-05-18 11:37:00,74.0,64.8,29.50,East,100,0.0,0.0,73,0.00,CLR,,0.00,WeatherDisplay:10.37,2013-05-18 15:37:00,
2013-05-18 11:42:00,74.2,64.6,29.50,ESE,102,1.1,1.1,72,0.00,CLR,,0.00,WeatherDisplay:10.37,2013-05-18 15:42:00,
2013-05-18 11:47:00,74.2,65.0,29.50,ESE,104,1.1,1.1,73,0.00,CLR,,0.00,WeatherDisplay:10.37,2013-05-18 15:47:00,
2013-05-18 11:52:00,74.7,65.1,29.50,ESE,106,0.0,0.0,72,0.00,CLR,,0.00,WeatherDisplay:10.37,2013-05-18 15:52:00,
2013-05-18 11:57:00,75.3,65.6,29.50,ESE,106,0.0,0.0,72,0.00,CLR,,0.00,WeatherDisplay:10.37,2013-05-18 15:57:00,
2013-05-18 12:02:00,75.1,65.1,29.50,ESE,104,1.1,1.1,71,0.00,CLR,,0.00,WeatherDisplay:10.37,2013-05-18 16:02:00,
2013-05-18 12:07:00,74.9,65.3,29.50,ESE,104,0.0,0.0,72,0.00,CLR,,0.00,WeatherDisplay:10.37,2013-05-18 16:07:00,
2013-05-18 12:12:00,75.6,65.9,29.50,ESE,104,0.0,0.0,72,0.00,CLR,,0.00,WeatherDisplay:10.37,2013-05-18 16:12:00,
2013-05-18 12:17:00,76.0,65.5,29.50,ESE,106,0.0,0.0,70,0.00,CLR,,0.00,WeatherDisplay:10.37,2013-05-18 16:17:00,
2013-05-18 12:22:00,76.0,65.5,29.50,ESE,104,0.0,0.0,70,0.00,CLR,,0.00,WeatherDisplay:10.37,2013-05-18 16:22:00,
2013-05-18 12:27:00,76.1,65.6,29.50,ESE,106,0.0,0.0,70,0.00,CLR,,0.00,WeatherDisplay:10.37,2013-05-18 16:27:00,
2013-05-18 12:32:00,76.1,65.6,29.50,ESE,106,0.0,0.0,70,0.00,CLR,,0.00,WeatherDisplay:10.37,2013-05-18 16:32:00,
2013-05-18 12:37:00,75.8,65.3,29.50,ESE,104,0.0,0.0,70,0.00,CLR,,0.00,WeatherDisplay:10.37,2013-05-18 16:37:00,
2013-05-18 12:42:00,75.4,65.3,29.49,ESE,106,0.0,0.0,71,0.00,CLR,,0.00,WeatherDisplay:10.37,2013-05-18 16:42:00,
2013-05-18 12:47:00,75.4,66.1,29.49,ESE,106,0.0,0.0,73,0.00,CLR,,0.00,WeatherDisplay:10.37,2013-05-18 16:47:00,
2013-05-18 12:52:00,75.3,65.6,29.49,ESE,106,0.0,0.0,72,0.00,CLR,,0.00,WeatherDisplay:10.37,2013-05-18 16:52:00,
2013-05-18 12:57:00,74.9,66.1,29.49,East,85,0.0,0.0,74,0.00,CLR,,0.00,WeatherDisplay:10.37,2013-05-18 16:57:00,
2013-05-18 13:02:00,74.9,67.2,29.49,East,85,0.0,0.0,77,0.00,CLR,,0.00,WeatherDisplay:10.37,2013-05-18 17:02:00,
2013-05-18 13:07:00,74.6,66.9,29.49,SW,233,5.8,5.8,77,0.00,CLR,,0.00,WeatherDisplay:10.37,2013-05-18 17:07:00,
2013-05-18 13:12:00,73.0,66.8,29.50,NW,306,0.0,0.0,81,0.17,RA,,0.17,WeatherDisplay:10.37,2013-05-18 17:12:00,
2013-05-18 13:17:00,72.1,67.3,29.50,NW,306,0.0,0.0,85,0.21,RA,,0.21,WeatherDisplay:10.37,2013-05-18 17:17:00,
2013-05-18 13:22:00,71.5,67.4,29.50,NW,306,0.0,0.0,87,0.25,RA,,0.25,WeatherDisplay:10.37,2013-05-18 17:22:00,
2013-05-18 13:27:00,70.9,67.2,29.50,ESE,110,1.1,0.0,88,0.26,RA,,0.26,WeatherDisplay:10.37,2013-05-18 17:27:00,
2013-05-18 13:33:00,69.9,66.2,29.50,ENE,78,0.0,0.0,88,0.27,RA,,0.27,WeatherDisplay:10.37,2013-05-18 17:33:00,
2013-05-18 13:38:00,69.3,65.9,29.50,East,79,1.1,0.0,89,0.27,RA,,0.27,WeatherDisplay:10.37,2013-05-18 17:38:00,
2013-05-18 13:43:00,68.4,65.0,29.50,East,79,0.0,0.0,89,0.28,RA,,0.28,WeatherDisplay:10.37,2013-05-18 17:43:00,
2013-05-18 13:48:00,68.1,64.7,29.50,East,79,0.0,0.0,89,0.29,RA,,0.29,WeatherDisplay:10.37,2013-05-18 17:48:00,
2013-05-18 13:53:00,67.6,64.2,29.50,West,271,0.0,0.0,89,0.30,RA,,0.31,WeatherDisplay:10.37,2013-05-18 17:53:00,
2013-05-18 13:58:00,67.6,64.6,29.49,NNW,340,0.0,0.0,90,0.31,RA,,0.31,WeatherDisplay:10.37,2013-05-18 17:58:00,
2013-05-18 14:03:00,67.4,64.4,29.49,NNW,340,0.0,0.0,90,0.33,RA,,0.33,WeatherDisplay:10.37,2013-05-18 18:03:00,
2013-05-18 14:08:00,67.1,64.4,29.49,NNW,340,0.0,0.0,91,0.33,RA,,0.33,WeatherDisplay:10.37,2013-05-18 18:08:00,
2013-05-18 14:13:00,67.1,64.7,29.50,NNW,340,0.0,0.0,92,0.16,,,0.33,WeatherDisplay:10.37,2013-05-18 18:13:00,
2013-05-18 14:18:00,67.3,64.9,29.50,SSE,168,1.1,1.1,92,0.13,RA,,0.34,WeatherDisplay:10.37,2013-05-18 18:18:00,
2013-05-18 14:23:00,66.8,64.4,29.50,SSE,167,2.3,0.0,92,0.09,RA,,0.34,WeatherDisplay:10.37,2013-05-18 18:23:00,
2013-05-18 14:28:00,66.8,64.4,29.49,SSE,167,0.0,0.0,92,0.08,CLR,,0.34,WeatherDisplay:10.37,2013-05-18 18:28:00,
2013-05-18 14:33:00,66.6,64.2,29.49,SSE,167,0.0,0.0,92,0.07,CLR,,0.34,WeatherDisplay:10.37,2013-05-18 18:33:00,
2013-05-18 14:38:00,66.8,64.7,29.49,SSE,167,0.0,0.0,93,0.07,CLR,,0.34,WeatherDisplay:10.37,2013-05-18 18:38:00,
2013-05-18 14:43:00,66.8,64.7,29.49,SSE,167,0.0,0.0,93,0.06,CLR,,0.34,WeatherDisplay:10.37,2013-05-18 18:43:00,
2013-05-18 14:48:00,66.6,64.5,29.49,SSE,165,0.0,0.0,93,0.05,CLR,,0.34,WeatherDisplay:10.37,2013-05-18 18:48:00,
2013-05-18 14:53:00,66.6,64.5,29.49,SSE,165,0.0,0.0,93,0.04,CLR,,0.34,WeatherDisplay:10.37,2013-05-18 18:53:00,
2013-05-18 14:58:00,66.8,64.7,29.49,NE,54,0.0,0.0,93,0.03,CLR,,0.34,WeatherDisplay:10.37,2013-05-18 18:58:00,
2013-05-18 15:03:00,66.8,64.7,29.49,NE,54,0.0,0.0,93,0.01,CLR,,0.34,WeatherDisplay:10.37,2013-05-18 19:03:00,
2013-05-18 15:08:00,67.1,65.3,29.49,NE,54,0.0,0.0,94,0.01,CLR,,0.34,WeatherDisplay:10.37,2013-05-18 19:08:00,
2013-05-18 15:13:00,67.1,65.3,29.48,NE,54,0.0,0.0,94,0.01,CLR,,0.34,WeatherDisplay:10.37,2013-05-18 19:13:00,
2013-05-18 15:18:00,67.4,65.6,29.48,East,90,0.0,0.0,94,0.00,CLR,,0.34,WeatherDisplay:10.37,2013-05-18 19:18:00,
2013-05-18 15:23:00,67.8,66.0,29.48,East,90,0.0,0.0,94,0.00,CLR,,0.34,WeatherDisplay:10.37,2013-05-18 19:23:00,
2013-05-18 15:28:00,67.9,66.4,29.48,East,90,0.0,0.0,95,0.00,CLR,,0.34,WeatherDisplay:10.37,2013-05-18 19:28:00,
2013-05-18 15:33:00,68.3,66.8,29.48,East,86,0.0,0.0,95,0.00,CLR,,0.34,WeatherDisplay:10.37,2013-05-18 19:33:00,
2013-05-18 15:38:00,68.4,66.9,29.48,East,86,0.0,0.0,95,0.00,CLR,,0.34,WeatherDisplay:10.37,2013-05-18 19:38:00,
2013-05-18 15:43:00,68.4,66.6,29.48,East,88,0.0,0.0,94,0.00,CLR,,0.34,WeatherDisplay:10.37,2013-05-18 19:43:00,
2013-05-18 15:48:00,68.6,67.1,29.48,East,88,0.0,0.0,95,0.00,CLR,,0.34,WeatherDisplay:10.37,2013-05-18 19:48:00,
2013-05-18 15:53:00,69.1,67.6,29.48,ESE,103,0.0,0.0,95,0.00,CLR,,0.34,WeatherDisplay:10.37,2013-05-18 19:53:00,
2013-05-18 15:58:00,69.4,67.9,29.47,ESE,103,0.0,0.0,95,0.00,CLR,,0.34,WeatherDisplay:10.37,2013-05-18 19:58:00,
2013-05-18 16:03:00,69.6,67.8,29.47,ESE,103,0.0,0.0,94,0.00,CLR,,0.34,WeatherDisplay:10.37,2013-05-18 20:03:00,
2013-05-18 16:08:00,69.8,67.7,29.47,ESE,103,0.0,0.0,93,0.00,CLR,,0.34,WeatherDisplay:10.37,2013-05-18 20:08:00,
2013-05-18 16:13:00,70.3,68.2,29.47,NE,48,1.1,0.0,93,0.00,CLR,,0.34,WeatherDisplay:10.37,2013-05-18 20:13:00,
2013-05-18 16:18:00,70.9,68.5,29.47,NE,48,0.0,0.0,92,0.00,CLR,,0.34,WeatherDisplay:10.37,2013-05-18 20:18:00,
2013-05-18 16:23:00,71.3,67.9,29.47,SSE,158,1.1,0.0,89,0.00,CLR,,0.34,WeatherDisplay:10.37,2013-05-18 20:23:00,
2013-05-18 16:28:00,71.3,67.6,29.47,SSE,158,0.0,0.0,88,0.00,CLR,,0.34,WeatherDisplay:10.37,2013-05-18 20:28:00,
2013-05-18 16:33:00,71.8,67.4,29.47,NNE,13,2.3,0.0,86,0.00,CLR,,0.34,WeatherDisplay:10.37,2013-05-18 20:33:00,
2013-05-18 16:38:00,72.3,67.2,29.47,NNE,32,2.3,2.3,84,0.00,CLR,,0.34,WeatherDisplay:10.37,2013-05-18 20:38:00,
2013-05-18 16:43:00,72.5,67.0,29.47,North,1,4.6,4.6,83,0.00,CLR,,0.34,WeatherDisplay:10.37,2013-05-18 20:43:00,
2013-05-18 16:48:00,72.5,66.7,29.47,North,4,0.0,0.9,82,0.00,CLR,,0.34,WeatherDisplay:10.37,2013-05-18 20:48:00,
2013-05-18 16:53:00,72.3,66.8,29.47,North,8,0.0,0.0,83,0.00,CLR,,0.34,WeatherDisplay:10.37,2013-05-18 20:53:00,
2013-05-18 16:58:00,72.5,67.0,29.46,North,8,0.0,0.0,83,0.00,CLR,,0.34,WeatherDisplay:10.37,2013-05-18 20:58:00,
2013-05-18 17:03:00,72.5,67.4,29.46,NE,49,3.0,3.0,84,0.00,CLR,,0.34,WeatherDisplay:10.37,2013-05-18 21:03:00,
2013-05-18 17:08:00,72.5,67.0,29.46,NNE,27,1.1,1.1,83,0.00,CLR,,0.34,WeatherDisplay:10.37,2013-05-18 21:08:00,
2013-05-18 17:13:00,72.3,66.5,29.45,NNE,23,2.3,2.3,82,0.00,CLR,,0.34,WeatherDisplay:10.37,2013-05-18 21:13:00,
2013-05-18 17:18:00,72.7,66.9,29.45,NNE,13,0.0,0.0,82,0.00,CLR,,0.34,WeatherDisplay:10.37,2013-05-18 21:18:00,
2013-05-18 17:23:00,73.0,66.5,29.45,NNW,342,1.1,0.0,80,0.00,CLR,,0.34,WeatherDisplay:10.37,2013-05-18 21:23:00,
2013-05-18 17:28:00,73.0,66.5,29.45,North,357,1.0,1.0,80,0.00,CLR,,0.34,WeatherDisplay:10.37,2013-05-18 21:28:00,
2013-05-18 17:33:00,73.3,67.1,29.45,NE,40,0.0,0.0,81,0.00,CLR,,0.34,WeatherDisplay:10.37,2013-05-18 21:33:00,
2013-05-18 17:38:00,73.3,66.8,29.45,NE,40,0.0,0.0,80,0.00,CLR,,0.34,WeatherDisplay:10.37,2013-05-18 21:38:00,
2013-05-18 17:43:00,73.2,67.0,29.45,NE,40,0.0,0.0,81,0.00,CLR,,0.34,WeatherDisplay:10.37,2013-05-18 21:43:00,
2013-05-18 17:48:00,73.2,67.0,29.45,NE,40,0.0,0.0,81,0.00,CLR,,0.34,WeatherDisplay:10.37,2013-05-18 21:48:00,
2013-05-18 17:53:00,73.2,66.7,29.45,NE,40,0.0,0.0,80,0.00,CLR,,0.34,WeatherDisplay:10.37,2013-05-18 21:53:00,
2013-05-18 17:58:00,73.2,67.0,29.45,NE,40,0.0,0.0,81,0.00,CLR,,0.34,WeatherDisplay:10.37,2013-05-18 21:58:00,
2013-05-18 18:03:00,73.0,66.8,29.45,North,6,0.0,0.0,81,0.00,CLR,,0.34,WeatherDisplay:10.37,2013-05-18 22:03:00,
2013-05-18 18:08:00,73.0,67.2,29.45,ESE,110,0.0,0.0,82,0.00,CLR,,0.34,WeatherDisplay:10.37,2013-05-18 22:08:00,
2013-05-18 18:13:00,73.0,67.5,29.45,ESE,110,0.0,0.0,83,0.00,CLR,,0.34,WeatherDisplay:10.37,2013-05-18 22:13:00,
2013-05-18 18:18:00,73.0,67.5,29.45,ESE,110,0.0,0.0,83,0.00,CLR,,0.34,WeatherDisplay:10.37,2013-05-18 22:18:00,
2013-05-18 18:23:00,72.3,66.8,29.45,ESE,110,0.0,0.0,83,0.00,CLR,,0.34,WeatherDisplay:10.37,2013-05-18 22:23:00,
2013-05-18 18:28:00,72.1,66.6,29.45,ESE,110,0.0,0.0,83,0.00,CLR,,0.34,WeatherDisplay:10.37,2013-05-18 22:28:00,
2013-05-18 18:33:00,72.0,66.9,29.45,ESE,110,0.0,0.0,84,0.00,CLR,,0.34,WeatherDisplay:10.37,2013-05-18 22:33:00,
2013-05-18 18:38:00,72.0,67.2,29.45,ESE,110,0.0,0.0,85,0.00,CLR,,0.34,WeatherDisplay:10.37,2013-05-18 22:38:00,
2013-05-18 18:43:00,71.8,67.0,29.46,ESE,110,0.0,0.0,85,0.00,CLR,,0.34,WeatherDisplay:10.37,2013-05-18 22:43:00,
2013-05-18 18:48:00,71.6,67.2,29.46,ENE,68,0.0,0.0,86,0.00,CLR,,0.34,WeatherDisplay:10.37,2013-05-18 22:48:00,
2013-05-18 18:53:00,71.3,67.2,29.46,East,79,1.1,0.0,87,0.00,CLR,,0.34,WeatherDisplay:10.37,2013-05-18 22:53:00,
2013-05-18 18:58:00,70.9,66.8,29.46,East,79,0.0,0.1,87,0.00,CLR,,0.34,WeatherDisplay:10.37,2013-05-18 22:58:00,
2013-05-18 19:03:00,70.8,67.1,29.46,ESE,113,0.0,0.0,88,0.00,CLR,,0.34,WeatherDisplay:10.37,2013-05-18 23:03:00,
2013-05-18 19:08:00,70.4,66.7,29.46,ESE,113,0.0,0.0,88,0.00,CLR,,0.34,WeatherDisplay:10.37,2013-05-18 23:08:00,
2013-05-18 19:13:00,70.1,66.4,29.46,ESE,113,0.0,0.0,88,0.00,CLR,,0.34,WeatherDisplay:10.37,2013-05-18 23:13:00,
2013-05-18 19:18:00,69.9,66.5,29.46,ESE,119,0.0,0.0,89,0.00,CLR,,0.34,WeatherDisplay:10.37,2013-05-18 23:18:00,
2013-05-18 19:23:00,69.8,66.4,29.46,ESE,119,0.0,0.0,89,0.00,CLR,,0.34,WeatherDisplay:10.37,2013-05-18 23:23:00,
2013-05-18 19:28:00,69.6,66.2,29.47,ESE,119,0.0,0.0,89,0.00,CLR,,0.34,WeatherDisplay:10.37,2013-05-18 23:28:00,
2013-05-18 19:33:00,69.6,66.5,29.47,ESE,119,0.0,0.0,90,0.00,CLR,,0.34,WeatherDisplay:10.37,2013-05-18 23:33:00,
2013-05-18 19:38:00,69.4,66.3,29.47,ESE,119,0.0,0.0,90,0.00,CLR,,0.34,WeatherDisplay:10.37,2013-05-18 23:38:00,
2013-05-18 19:43:00,69.4,66.3,29.47,ESE,119,0.0,0.0,90,0.00,CLR,,0.34,WeatherDisplay:10.37,2013-05-18 23:43:00,
2013-05-18 19:48:00,69.3,66.2,29.47,ESE,119,0.0,0.0,90,0.00,CLR,,0.34,WeatherDisplay:10.37,2013-05-18 23:48:00,
2013-05-18 19:53:00,69.1,66.4,29.47,ESE,119,0.0,0.0,91,0.00,CLR,,0.34,WeatherDisplay:10.37,2013-05-18 23:53:00,
2013-05-18 19:58:00,69.1,66.4,29.48,SSE,167,0.0,0.0,91,0.00,CLR,,0.34,WeatherDisplay:10.37,2013-05-18 23:58:00,
2013-05-18 20:03:00,68.8,66.1,29.48,SSE,155,1.1,1.1,91,0.00,CLR,,0.34,WeatherDisplay:10.37,2013-05-19 00:03:00,
2013-05-18 20:08:00,68.8,66.4,29.48,SSE,155,0.0,0.0,92,0.00,CLR,,0.34,WeatherDisplay:10.37,2013-05-19 00:08:00,
2013-05-18 20:13:00,68.6,66.2,29.47,ESE,112,3.5,3.5,92,0.00,CLR,,0.34,WeatherDisplay:10.37,2013-05-19 00:13:00,
2013-05-18 20:18:00,68.4,66.0,29.47,ESE,109,0.0,0.0,92,0.00,CLR,,0.34,WeatherDisplay:10.37,2013-05-19 00:18:00,
2013-05-18 20:23:00,68.4,66.0,29.47,NE,41,0.0,0.0,92,0.02,RA,,0.36,WeatherDisplay:10.37,2013-05-19 00:23:00,
2013-05-18 20:28:00,68.3,65.9,29.47,North,7,1.1,0.0,92,0.03,RA,,0.37,WeatherDisplay:10.37,2013-05-19 00:28:00,
2013-05-18 20:33:00,68.1,65.7,29.47,North,7,0.0,0.0,92,0.03,RA,,0.37,WeatherDisplay:10.37,2013-05-19 00:33:00,
2013-05-18 20:38:00,67.9,65.8,29.47,NNE,17,0.0,0.0,93,0.04,RA,,0.38,WeatherDisplay:10.37,2013-05-19 00:38:00,
2013-05-18 20:43:00,67.9,65.8,29.47,North,11,1.1,0.0,93,0.04,RA,,0.38,WeatherDisplay:10.37,2013-05-19 00:43:00,
2013-05-18 20:48:00,67.8,65.7,29.47,North,11,0.0,0.0,93,0.04,CLR,,0.38,WeatherDisplay:10.37,2013-05-19 00:48:00,
2013-05-18 20:53:00,67.8,65.7,29.47,North,11,0.0,0.0,93,0.04,CLR,,0.38,WeatherDisplay:10.37,2013-05-19 00:53:00,
2013-05-18 20:58:00,67.6,65.8,29.47,North,11,0.0,0.0,94,0.04,CLR,,0.38,WeatherDisplay:10.37,2013-05-19 00:58:00,
2013-05-18 21:03:00,67.6,65.8,29.47,North,11,0.0,0.0,94,0.04,CLR,,0.38,WeatherDisplay:10.37,2013-05-19 01:03:00,
2013-05-18 21:08:00,67.4,65.6,29.47,North,11,0.0,0.0,94,0.04,CLR,,0.38,WeatherDisplay:10.37,2013-05-19 01:08:00,
2013-05-18 21:13:00,67.4,65.9,29.48,North,11,0.0,0.0,95,0.04,CLR,,0.38,WeatherDisplay:10.37,2013-05-19 01:13:00,
2013-05-18 21:18:00,67.4,65.9,29.48,NNE,18,0.0,0.0,95,0.04,CLR,,0.38,WeatherDisplay:10.37,2013-05-19 01:18:00,
2013-05-18 21:23:00,67.3,65.8,29.48,NNE,18,0.0,0.0,95,0.02,CLR,,0.38,WeatherDisplay:10.37,2013-05-19 01:23:00,
2013-05-18 21:28:00,67.3,65.8,29.49,NNE,18,0.0,0.0,95,0.01,CLR,,0.38,WeatherDisplay:10.37,2013-05-19 01:28:00,
2013-05-18 21:33:00,67.3,65.8,29.49,NNE,18,0.0,0.0,95,0.01,CLR,,0.38,WeatherDisplay:10.37,2013-05-19 01:33:00,
2013-05-18 21:38:00,67.3,66.1,29.49,NNE,18,0.0,0.0,96,0.00,CLR,,0.38,WeatherDisplay:10.37,2013-05-19 01:38:00,
2013-05-18 21:43:00,67.3,66.1,29.49,NNE,18,0.0,0.0,96,0.00,CLR,,0.38,WeatherDisplay:10.37,2013-05-19 01:43:00,
2013-05-18 21:48:00,67.1,65.9,29.49,NNE,18,0.0,0.0,96,0.00,CLR,,0.38,WeatherDisplay:10.37,2013-05-19 01:48:00,
2013-05-18 21:53:00,67.1,65.9,29.49,NNE,18,0.0,0.0,96,0.00,CLR,,0.38,WeatherDisplay:10.37,2013-05-19 01:53:00,
2013-05-18 21:58:00,67.1,65.9,29.49,NNE,18,1.1,1.1,96,0.00,CLR,,0.38,WeatherDisplay:10.37,2013-05-19 01:58:00,
2013-05-18 22:03:00,67.1,65.9,29.49,NNE,18,0.0,0.0,96,0.00,CLR,,0.38,WeatherDisplay:10.37,2013-05-19 02:03:00,
2013-05-18 22:08:00,67.1,65.9,29.49,NNE,20,0.0,0.0,96,0.00,CLR,,0.38,WeatherDisplay:10.37,2013-05-19 02:08:00,
2013-05-18 22:13:00,67.1,65.9,29.50,NNE,18,0.0,0.0,96,0.00,CLR,,0.38,WeatherDisplay:10.37,2013-05-19 02:13:00,
2013-05-18 22:18:00,67.1,66.2,29.50,NNE,18,0.0,0.0,97,0.00,CLR,,0.38,WeatherDisplay:10.37,2013-05-19 02:18:00,
2013-05-18 22:23:00,67.1,66.2,29.50,West,263,4.6,4.6,97,0.01,RA,,0.39,WeatherDisplay:10.37,2013-05-19 02:23:00,
2013-05-18 22:28:00,66.6,65.4,29.52,NNW,330,9.2,9.2,96,0.01,RA,,0.39,WeatherDisplay:10.37,2013-05-19 02:28:00,
2013-05-18 22:33:00,65.5,64.0,29.52,WSW,239,4.6,4.6,95,0.01,,,0.39,WeatherDisplay:10.37,2013-05-19 02:33:00,
2013-05-18 22:38:00,64.7,63.2,29.52,SSW,205,6.9,6.9,95,0.01,CLR,,0.39,WeatherDisplay:10.37,2013-05-19 02:38:00,
2013-05-18 22:43:00,64.0,61.9,29.52,WSW,247,5.8,5.8,93,0.02,RA,,0.40,WeatherDisplay:10.37,2013-05-19 02:43:00,
2013-05-18 22:48:00,63.5,61.4,29.52,NW,312,5.8,5.8,93,0.02,RA,,0.40,WeatherDisplay:10.37,2013-05-19 02:48:00,
2013-05-18 22:53:00,63.4,61.3,29.52,West,275,0.0,0.0,93,0.02,CLR,,0.40,WeatherDisplay:10.37,2013-05-19 02:53:00,
2013-05-18 22:58:00,63.2,61.4,29.51,West,275,2.3,2.3,94,0.03,RA,,0.41,WeatherDisplay:10.37,2013-05-19 02:58:00,
2013-05-18 23:03:00,63.1,61.3,29.51,West,274,0.0,0.0,94,0.03,RA,,0.41,WeatherDisplay:10.37,2013-05-19 03:03:00,
2013-05-18 23:08:00,63.1,61.3,29.51,West,274,0.0,0.0,94,0.03,,,0.41,WeatherDisplay:10.37,2013-05-19 03:08:00,
2013-05-18 23:13:00,63.1,61.6,29.50,West,274,0.0,0.0,95,0.03,CLR,,0.41,WeatherDisplay:10.37,2013-05-19 03:13:00,
2013-05-18 23:18:00,63.1,61.6,29.50,West,274,0.0,0.0,95,0.03,CLR,,0.41,WeatherDisplay:10.37,2013-05-19 03:18:00,
2013-05-18 23:23:00,63.1,61.6,29.50,West,274,0.0,0.0,95,0.02,CLR,,0.41,WeatherDisplay:10.37,2013-05-19 03:23:00,
2013-05-18 23:28:00,63.1,61.9,29.49,West,274,0.0,0.0,96,0.03,RA,,0.42,WeatherDisplay:10.37,2013-05-19 03:28:00,
2013-05-18 23:33:00,62.9,61.7,29.49,West,274,0.0,0.0,96,0.03,RA,,0.42,WeatherDisplay:10.37,2013-05-19 03:33:00,
2013-05-18 23:38:00,62.9,61.7,29.49,West,274,0.0,0.0,96,0.04,RA,,0.43,WeatherDisplay:10.37,2013-05-19 03:38:00,
2013-05-18 23:43:00,62.9,61.7,29.49,West,274,0.0,0.0,96,0.03,RA,,0.43,WeatherDisplay:10.37,2013-05-19 03:43:00,
2013-05-18 23:48:00,62.9,61.7,29.49,West,274,0.0,0.0,96,0.03,,,0.43,WeatherDisplay:10.37,2013-05-19 03:48:00,
2013-05-18 23:53:00,62.7,61.5,29.49,West,274,0.0,0.0,96,0.04,RA,,0.44,WeatherDisplay:10.37,2013-05-19 03:53:00,
2013-05-18 23:58:00,62.7,61.5,29.49,West,274,0.0,0.0,96,0.03,RA,,0.44,WeatherDisplay:10.37,2013-05-19 03:58:00,